Погода в Котельникове

Россия / Волгоградская область     47°38′14″N   43°11′13″E
темп.,
°C
ветер,
м/с
пор.,
м/с
влажн.,
%
обл.,
%
осадки,
мм/ч
давл.,
гПа
погр.,
м
25 февраля, чт
чт2500:00−13ю126488 0.0 1040209
03:00−13ююз236789 0.0 1039277
06:00−13ю246888 0.0 1038261
09:00−12ю466491 0.0 1037319
12:00−8ююз575590 0.0 1035426
15:00−6ююз586395 0.0 1032468
18:00−6юз5983100 0.0 1030450
21:00−6юз61277100 0.0 1028421
26 февраля, пт
пт2600:00−5зюз71478100 0.0 1025395
03:00−2з81693100 0.6 1023470
06:000з81496100 0.8 1021437
09:00+1з81496100 2.1 1021430
12:00+2з71398100 0.4 1020395
15:00+2з71298100 0.5 1020350
18:00+3зюз71398100 0.1 1019321
21:00+2зюз61298100 0.1 1019343
27 февраля, сб
сб2700:00+3зюз71495100 0.0 1017468
03:00+3з81594100 0.1 1015559
06:00+2з71494100 0.1 1014491
09:00+3з61396100 0.3 1013417
12:00+3з5997100 0.2 1012342
15:00+2з51298100 1.1 1010470
18:00+2з51098100 0.9 1010320
21:00+2зюз51195100 1.1 1010295
28 февраля, вс
вс2800:00+1з5119498 0.1 1009326
03:00−1з489672 0.1 1010239
06:00−1з499525 0.0 1010282
09:00+1з599158 0.1 1011569
12:00+3з7108393 0.1 1012830
15:00+1сз697896 0.4 1013885
18:00−2сз5876100 0.0 1015810
21:00−3сз5874100 0.0 1018817
1 марта, пн
пн100:00−4сз6775100 0.0 1019827
03:00−5сз6776100 0.1 1021856
06:00−6сз5772100 0.0 1022723
09:00−6ссз576994 0.0 1024682
12:00−4сз565987 0.0 1026853
15:00−3сз575674 0.0 1026895
18:00−4ссз46630 0.0 1027717
21:00−4ссз35650 0.0 1029669